[[{"header":{"parameterUnit":"m.s-1","parameterCategory":2,"la1":30.2991,"la2":30.254,"lo1":-89.0895,"lo2":-89.0444,"dy":0.0017,"dx":0.0017,"nx":28,"ny":28,"refTime":"2024-05-10T03:00:00:Z","depth":"0","parameterNumber":2,"parameterNumberName":"U-component_of_CURRENTS"},"data":[0,0,0,0,0,0,0,0,0,0,0,0,0,0,0,0,0,0,0,0,0,0,0,0,0,0,0,0,0,0,0,0,0,0,0,0,0,0,0,0,0,0,0,0,0,0,0,0,0,0,0,0,0,0,0,0,0,0,-0.3647,-0.3648,0,-0.369,-0.3691,-0.3691,-0.3648,-0.3646,-0.3645,-0.3644,-0.3563,-0.3562,-0.3562,0,0,0,0,0,0,0,0,0,0,0,0,0,-0.3502,-0.3505,-0.3647,-0.3648,-0.3649,-0.369,-0.3691,-0.3691,-0.3648,-0.3646,-0.3645,-0.3643,-0.3564,-0.3563,-0.3561,0,0,0,0,0,0,0,0,0,0,0,0,0,-0.3553,-0.3506,-0.3647,-0.3635,-0.3635,-0.369,-0.3691,-0.3691,-0.3648,-0.3646,-0.3644,-0.3642,-0.3564,-0.3563,-0.3561,-0.3592,0,0,-0.3557,-0.3556,0,0,0,0,0,0,0,0,-0.3551,-0.3558,-0.3636,-0.3636,-0.3636,-0.3665,-0.361,-0.3653,-0.3649,-0.3639,-0.3644,-0.3641,-0.359,-0.3587,-0.3595,-0.3588,-0.3585,-0.3557,-0.3556,-0.3556,-0.3555,0,0,0,0,0,0,0,-0.3547,-0.3556,-0.366,-0.3637,-0.3637,-0.362,-0.3625,-0.3618,-0.3619,-0.3639,-0.3637,-0.365,-0.3588,-0.3596,-0.3592,-0.3584,-0.3557,-0.3556,-0.3555,-0.3554,-0.3609,-0.3611,0,0,0,0,0,0,-0.3555,-0.3553,-0.3658,-0.3661,-0.3592,-0.3625,-0.363,-0.3654,-0.3622,-0.3617,-0.3651,-0.3648,-0.36,-0.3594,-0.3589,-0.3624,-0.3556,-0.3554,-0.3553,-0.3607,-0.361,-0.3612,0,0,0,0,0,0,-0.3551,-0.3564,-0.3657,-0.361,-0.3621,-0.363,-0.3657,-0.3656,-0.3657,-0.3633,-0.3625,-0.3652,-0.3598,-0.3591,-0.3588,-0.362,-0.3554,-0.3552,-0.3604,-0.3608,-0.3611,-0.3693,0,0,0,0,0,0,-0.3547,-0.3563,-0.3575,-0.3612,-0.3625,-0.3692,-0.366,-0.3659,-0.367,-0.3665,-0.3632,-0.3623,-0.3596,-0.3591,-0.3587,-0.3617,-0.3551,-0.3601,-0.3606,-0.361,-0.3687,-0.3699,-0.3708,0,0,0,0,0,-0.3542,-0.3567,-0.3576,-0.3588,-0.3645,-0.3694,-0.3699,-0.3694,-0.3672,-0.3684,-0.3662,-0.3623,-0.3615,-0.3592,-0.3586,-0.3617,-0.3599,-0.3604,-0.3609,-0.3682,-0.3696,-0.3708,0,0,0,0,0,0,-0.3503,-0.3567,-0.3577,-0.3618,-0.3656,-0.3688,-0.3696,-0.37,-0.3695,-0.3681,-0.3646,-0.3637,-0.3652,-0.3629,-0.3603,-0.3649,-0.3604,-0.3609,-0.3662,-0.3674,-0.3685,-0.3665,-0.355,0,0,0,0,0,-0.3508,-0.3542,-0.3599,-0.3629,-0.365,-0.3675,-0.369,-0.3698,-0.3706,-0.3701,-0.3682,-0.3668,-0.3676,-0.3666,-0.3665,-0.3683,-0.3637,-0.3704,-0.3714,-0.3723,-0.3707,-0.3688,-0.3694,-0.3629,-0.3629,-0.3629,0,0,-0.3499,-0.3539,-0.3557,-0.3624,-0.3646,-0.3691,-0.3677,-0.3711,-0.374,-0.3693,-0.3708,-0.3703,-0.3691,-0.3716,-0.3721,-0.3693,-0.3719,-0.373,-0.3737,-0.3715,-0.3694,-0.37,-0.3705,-0.3632,-0.3632,-0.3631,0,0,-0.3501,-0.354,-0.3568,-0.3611,-0.3664,-0.3694,-0.3707,-0.3749,-0.3756,-0.3786,-0.3766,-0.3776,-0.3778,-0.3781,-0.3782,-0.3851,-0.3781,-0.3858,-0.3886,-0.387,-0.3874,-0.3877,-0.3823,-0.3821,-0.3858,-0.3858,-0.3858,0,-0.3484,-0.3536,-0.3582,-0.3624,-0.3656,-0.3699,-0.3736,-0.377,-0.3803,-0.381,-0.3796,-0.3817,-0.3811,-0.3841,-0.387,-0.3872,-0.3833,-0.3836,-0.388,-0.3882,-0.3884,-0.3828,-0.3825,-0.3863,-0.3862,-0.3862,-0.3861,0,-0.3512,-0.3555,-0.3576,-0.3649,-0.3693,-0.3734,-0.3799,-0.3833,-0.3849,-0.387,-0.3899,-0.3901,-0.3902,-0.3926,-0.3917,-0.3943,-0.3901,-0.3898,-0.384,-0.3895,-0.3834,-0.3828,-0.3869,-0.3867,-0.3866,-0.3865,0,0,-0.3454,-0.3573,-0.3573,-0.3611,-0.3708,-0.3744,-0.3814,-0.3877,-0.3902,-0.3937,-0.3953,-0.3995,-0.398,-0.3981,-0.3981,-0.3976,-0.3969,-0.3942,-0.3939,-0.3874,-0.3897,-0.379,-0.3772,-0.3969,-0.3969,-0.3969,-0.3847,0,-0.3451,-0.3527,-0.3592,-0.3659,-0.3703,-0.3779,-0.3834,-0.3896,-0.3941,-0.3972,-0.399,-0.4005,-0.4009,-0.4006,-0.4009,-0.3982,-0.3958,-0.3999,-0.3865,-0.386,-0.3746,-0.3765,-0.3624,-0.3497,-0.3841,-0.384,-0.3839,0,-0.344,-0.3498,-0.356,-0.3663,-0.3686,-0.3732,-0.3817,-0.3877,-0.395,-0.3975,-0.4003,-0.4013,-0.4027,-0.4017,-0.3976,-0.3997,-0.3946,-0.3919,-0.3913,-0.3773,-0.3743,-0.35,-0.3473,-0.3442,-0.383,-0.3831,-0.3831,0,-0.3354,-0.3466,-0.351,-0.3548,-0.3675,-0.3704,-0.3767,-0.3857,-0.3902,-0.3967,-0.3986,-0.4007,-0.3997,-0.3967,-0.3926,-0.3943,-0.3855,-0.387,-0.3716,-0.3706,-0.3537,-0.3513,-0.3445,-0.3815,-0.3815,-0.3816,-0.3816,0,-0.3317,-0.3346,-0.347,-0.3491,-0.3534,-0.3643,-0.3691,-0.376,-0.3849,-0.3872,-0.3962,-0.3968,-0.3983,-0.395,-0.3911,-0.3783,-0.3835,-0.37,-0.3668,-0.3563,-0.3543,-0.3467,-0.3505,-0.3811,-0.3812,-0.3813,-0.3814,0,-0.3202,-0.3291,-0.3343,-0.3462,-0.3492,-0.3516,-0.3639,-0.3663,-0.3777,-0.381,-0.3824,-0.3915,-0.3866,-0.3858,-0.3791,-0.3732,-0.3572,-0.3583,-0.344,-0.3393,-0.3214,-0.3262,-0.3137,-0.3045,-0.3381,-0.3378,-0.3375,0,-0.3151,-0.3166,-0.3281,-0.3289,-0.3333,-0.34,-0.3425,-0.3582,-0.3616,-0.3757,-0.3737,-0.3759,-0.3719,-0.3608,-0.3512,-0.3389,-0.3413,-0.3194,-0.3208,-0.3163,-0.3194,-0.3236,-0.3173,-0.3015,-0.3009,-0.3004,-0.3001,0,-0.3022,-0.3059,-0.3085,-0.3132,-0.3157,-0.3215,-0.3276,-0.3313,-0.3468,-0.3514,-0.3549,-0.3548,-0.3466,-0.3302,-0.3175,-0.3095,-0.3115,-0.3093,-0.3089,-0.2926,-0.2923,-0.2831,-0.313,-0.296,-0.2964,-0.2967,-0.2969,-0.2971,-0.2879,-0.2873,-0.291,-0.2931,-0.2966,-0.2999,-0.2977,-0.3063,-0.3112,-0.3135,-0.326,-0.3209,-0.3149,-0.2956,-0.2864,-0.2681,-0.2786,-0.2619,-0.2684,-0.2733,-0.2636,-0.2826,-0.2605,-0.2607,-0.2608,-0.261,-0.2611,0,-0.27,-0.2703,-0.2708,-0.2732,-0.2694,-0.2792,-0.2827,-0.2775,-0.2744,-0.2832,-0.2822,-0.2823,-0.2651,-0.2614,-0.2455,-0.233,-0.2281,-0.2288,-0.2331,-0.2286,-0.2463,-0.2438,-0.2119,-0.2119,-0.2119,-0.2119,-0.2119,-0.2119,-0.2594,-0.2531,-0.255,-0.2441,-0.2448,-0.2345,-0.2319,-0.2275,-0.23,-0.2278,-0.2323,-0.2427,-0.2442,-0.2541,-0.2333,-0.2198,-0.2157,-0.208,-0.2125,-0.2289,-0.2327,-0.2363,-0.2346,-0.2013,-0.2013,-0.185,-0.1849,-0.1849]},{"header":{"parameterUnit":"m.s-1","parameterCategory":2,"la1":30.2991,"la2":30.254,"lo1":-89.0895,"lo2":-89.0444,"dy":0.0017,"dx":0.0017,"nx":28,"ny":28,"refTime":"2024-05-10T03:00:00:Z","depth":"0","parameterNumber":3,"parameterNumberName":"V-component_of_CURRENTS"},"data":[0,0,0,0,0,0,0,0,0,0,0,0,0,0,0,0,0,0,0,0,0,0,0,0,0,0,0,0,0,0,0,0,0,0,0,0,0,0,0,0,0,0,0,0,0,0,0,0,0,0,0,0,0,0,0,0,0,0,-0.0469,-0.0467,0,-0.0334,-0.0333,-0.0331,-0.0239,-0.0238,-0.0238,-0.0237,-0.006,-0.0056,-0.0051,0,0,0,0,0,0,0,0,0,0,0,0,0,-0.0565,-0.0564,-0.0469,-0.0467,-0.0466,-0.0335,-0.0333,-0.0331,-0.0239,-0.0238,-0.0238,-0.0237,-0.0061,-0.0056,-0.0051,0,0,0,0,0,0,0,0,0,0,0,0,0,-0.0485,-0.0563,-0.0469,-0.0405,-0.0398,-0.0335,-0.0332,-0.033,-0.0239,-0.0238,-0.0237,-0.0237,-0.0063,-0.0057,-0.005,-0.0027,0,0,-0.0031,-0.0028,0,0,0,0,0,0,0,0,-0.0489,-0.0481,-0.0416,-0.041,-0.0402,-0.0304,-0.0301,-0.0227,-0.0239,-0.0298,-0.0237,-0.0236,-0.0139,-0.0126,-0.0101,-0.0018,-0.0011,-0.003,-0.0026,-0.0024,-0.0022,0,0,0,0,0,0,0,-0.0495,-0.0486,-0.0414,-0.0415,-0.0406,-0.0356,-0.0344,-0.0286,-0.0222,-0.0292,-0.0286,-0.0274,-0.0134,-0.0107,-0.0096,-0.0008,-0.003,-0.0025,-0.0021,-0.0018,0.0115,0.0115,0,0,0,0,0,0,-0.052,-0.0492,-0.0418,-0.041,-0.0446,-0.0355,-0.0342,-0.0335,-0.0224,-0.0207,-0.0275,-0.027,-0.0119,-0.0104,-0.0089,-0.0054,-0.0024,-0.0018,-0.0014,0.0115,0.0115,0.0115,0,0,0,0,0,0,-0.0523,-0.0515,-0.0423,-0.0449,-0.0434,-0.0355,-0.0347,-0.0333,-0.0305,-0.0211,-0.0193,-0.0263,-0.0117,-0.0098,-0.0039,-0.0046,-0.0015,-0.0009,0.0116,0.0115,0.0115,0.0017,0,0,0,0,0,0,-0.0526,-0.0517,-0.0524,-0.0451,-0.0433,-0.0399,-0.0348,-0.0331,-0.03,-0.0292,-0.0195,-0.0177,-0.0115,-0.0049,-0.0033,-0.0037,-0.0004,0.0116,0.0115,0.0115,0.002,0.0013,0.0007,0,0,0,0,0,-0.053,-0.0549,-0.0526,-0.0517,-0.0445,-0.04,-0.0387,-0.0327,-0.03,-0.0297,-0.0226,-0.018,-0.0041,-0.0044,-0.0025,-0.0027,0.0116,0.0116,0.0115,0.0023,0.0015,0.0007,0,0,0,0,0,0,-0.0593,-0.0539,-0.0512,-0.0513,-0.0466,-0.0386,-0.038,-0.0336,-0.0277,-0.027,-0.0179,-0.0157,-0.0111,-0.0056,-0.0062,0.0009,0.0043,0.0046,-0.0033,-0.004,-0.0047,-0.0064,0.0001,0,0,0,0,0,-0.0613,-0.0613,-0.0547,-0.0548,-0.0531,-0.0457,-0.0433,-0.0391,-0.0328,-0.0301,-0.0232,-0.0159,-0.0099,-0.006,-0.0003,0.004,0.0104,0.005,0.0043,0.0037,0.0036,0.0128,0.013,0.0113,0.0113,0.0113,0,0,-0.0638,-0.0609,-0.0608,-0.0562,-0.0521,-0.0506,-0.044,-0.0413,-0.0393,-0.0292,-0.025,-0.0184,-0.0095,-0.0049,-0.0023,-0.0001,0.0073,0.0036,0.003,0.0033,0.0128,0.013,0.0131,0.0112,0.0112,0.0112,0,0,-0.0693,-0.0663,-0.0681,-0.0652,-0.0603,-0.0551,-0.0549,-0.0475,-0.0436,-0.0387,-0.0312,-0.0247,-0.0159,-0.0089,-0.0044,-0.0052,0.0028,-0.0041,-0.0078,0.001,0.0013,0.0016,0.0087,0.0097,-0.0037,-0.0037,-0.0037,0,-0.0727,-0.0735,-0.0679,-0.0688,-0.0673,-0.0579,-0.059,-0.0535,-0.045,-0.0416,-0.0391,-0.0245,-0.0175,-0.0098,-0.0102,-0.0066,-0.001,-0.0057,0.0001,0.0006,0.001,0.0084,0.0096,-0.0042,-0.0041,-0.0041,-0.004,0,-0.0789,-0.0795,-0.0804,-0.0781,-0.0757,-0.0752,-0.0674,-0.0635,-0.0575,-0.051,-0.0431,-0.0326,-0.0235,-0.0208,-0.0155,-0.009,-0.0059,-0.0026,0.0018,0.0006,0.0084,0.0099,-0.0049,-0.0047,-0.0046,-0.0044,0,0,-0.0863,-0.0853,-0.0856,-0.0864,-0.0809,-0.0795,-0.0759,-0.0692,-0.0659,-0.0567,-0.0515,-0.0406,-0.0338,-0.0282,-0.0201,-0.0122,-0.0045,-0.007,-0.0063,-0.0005,0.0141,0.0201,0.0223,-0.0002,0.0,0.0002,0.0177,0,-0.0925,-0.0975,-0.0942,-0.0971,-0.0984,-0.09,-0.0879,-0.0805,-0.0716,-0.0639,-0.051,-0.0435,-0.0367,-0.0323,-0.0234,-0.0088,-0.0009,-0.0096,0.0151,0.0158,0.0208,0.0242,0.0289,0.0453,0.0192,0.0195,0.0197,0,-0.0992,-0.1016,-0.107,-0.1067,-0.1066,-0.1061,-0.0996,-0.0958,-0.0821,-0.0756,-0.0639,-0.053,-0.0392,-0.0341,-0.0096,-0.0155,-0.0023,0.0088,0.0099,0.0202,0.0246,0.0428,0.049,0.0708,0.022,0.0218,0.0217,0,-0.1074,-0.1099,-0.1148,-0.115,-0.1131,-0.1129,-0.1098,-0.0993,-0.0957,-0.0811,-0.0759,-0.0582,-0.0484,-0.0294,-0.0058,-0.0075,0.0213,0.0225,0.0404,0.0409,0.0524,0.0536,0.0824,0.039,0.039,0.039,0.0389,0,-0.1152,-0.1186,-0.1191,-0.1221,-0.1269,-0.1215,-0.1217,-0.1154,-0.1051,-0.1007,-0.0823,-0.0733,-0.0468,-0.0265,-0.0066,0.0227,0.0217,0.0412,0.0469,0.0489,0.0495,0.0749,0.082,0.0396,0.0395,0.0393,0.0392,0,-0.1231,-0.1234,-0.1293,-0.1305,-0.1313,-0.1341,-0.1316,-0.13,-0.119,-0.1117,-0.1077,-0.0833,-0.0557,-0.0278,0.0049,0.0222,0.0635,0.0588,0.0585,0.064,0.0989,0.105,0.1377,0.152,0.0811,0.0814,0.0816,0,-0.1277,-0.1317,-0.1376,-0.1415,-0.1424,-0.145,-0.1465,-0.1385,-0.1352,-0.1169,-0.1135,-0.0857,-0.0634,-0.0118,0.0244,0.0624,0.0779,0.0867,0.0847,0.1038,0.1149,0.1184,0.1283,0.0959,0.0962,0.0965,0.0967,0,-0.1357,-0.1376,-0.1424,-0.1524,-0.1563,-0.1605,-0.1605,-0.1605,-0.149,-0.1393,-0.1198,-0.0999,-0.048,0.0004,0.0495,0.0715,0.1036,0.0932,0.1153,0.1313,0.1351,0.1506,0.0796,0.099,0.0988,0.0986,0.0985,0.0984,-0.1401,-0.1464,-0.1533,-0.1618,-0.1677,-0.1731,-0.175,-0.1711,-0.1653,-0.1471,-0.126,-0.0911,-0.021,0.0517,0.079,0.134,0.1266,0.1479,0.1543,0.1567,0.1697,0.1027,0.1267,0.1266,0.1265,0.1265,0.1264,0,-0.1457,-0.1525,-0.1619,-0.1719,-0.1798,-0.1802,-0.182,-0.1787,-0.171,-0.1482,-0.1238,-0.0471,0.0222,0.0855,0.1641,0.1937,0.2005,0.2063,0.2139,0.2217,0.1664,0.1663,0.1972,0.1972,0.1972,0.1971,0.1971,0.1971,-0.1484,-0.1588,-0.1645,-0.1791,-0.1857,-0.1911,-0.1913,-0.1834,-0.1666,-0.1262,-0.0842,-0.0482,0.044,0.1717,0.244,0.2497,0.2758,0.2709,0.2859,0.2477,0.2427,0.2379,0.2401,0.2859,0.286,0.3405,0.3411,0.3415]}],[{"header":{"parameterUnit":"m.s-1","parameterCategory":2,"la1":30.2991,"la2":30.254,"lo1":-89.0895,"lo2":-89.0444,"dy":0.0017,"dx":0.0017,"nx":28,"ny":28,"refTime":"2024-05-10T03:00:00:Z","depth":"2","parameterNumber":2,"parameterNumberName":"U-component_of_CURRENTS"},"data":[0,0,0,0,0,0,0,0,0,0,0,0,0,0,0,0,0,0,0,0,0,0,0,0,0,0,0,0,0,0,0,0,0,0,0,0,0,0,0,0,0,0,0,0,0,0,0,0,0,0,0,0,0,0,0,0,0,0,-0.3182,-0.3183,0,-0.3239,-0.3239,-0.324,-0.3221,-0.322,-0.3219,-0.3219,-0.3186,-0.3186,-0.3186,0,0,0,0,0,0,0,0,0,0,0,0,0,-0.3052,-0.3054,-0.3182,-0.3183,-0.3184,-0.3239,-0.3239,-0.324,-0.3221,-0.322,-0.3219,-0.3218,-0.3186,-0.3186,-0.3186,0,0,0,0,0,0,0,0,0,0,0,0,0,-0.3105,-0.3055,-0.3182,-0.3184,-0.3185,-0.3239,-0.3239,-0.324,-0.3222,-0.322,-0.3219,-0.3218,-0.3186,-0.3186,-0.3186,-0.3212,0,0,-0.3186,-0.3186,0,0,0,0,0,0,0,0,-0.3102,-0.3109,-0.3183,-0.3184,-0.3186,-0.3225,-0.3182,-0.3227,-0.3222,-0.3204,-0.3219,-0.3217,-0.3194,-0.3193,-0.3203,-0.321,-0.3209,-0.3186,-0.3186,-0.3185,-0.3185,0,0,0,0,0,0,0,-0.3098,-0.3107,-0.3201,-0.3184,-0.3186,-0.3181,-0.3187,-0.319,-0.3201,-0.3205,-0.3205,-0.3218,-0.3193,-0.3203,-0.3202,-0.3208,-0.3186,-0.3185,-0.3185,-0.3185,-0.3259,-0.3261,0,0,0,0,0,0,-0.3101,-0.3104,-0.3199,-0.3203,-0.3144,-0.3185,-0.3191,-0.3211,-0.3203,-0.3202,-0.3219,-0.3217,-0.3204,-0.3202,-0.32,-0.325,-0.3185,-0.3185,-0.3185,-0.3257,-0.326,-0.3262,0,0,0,0,0,0,-0.3098,-0.311,-0.3197,-0.3157,-0.3168,-0.3189,-0.3211,-0.3212,-0.3224,-0.3215,-0.3212,-0.3229,-0.3203,-0.32,-0.3214,-0.3247,-0.3185,-0.3185,-0.3255,-0.3258,-0.3261,-0.3335,0,0,0,0,0,0,-0.3094,-0.3108,-0.3121,-0.3157,-0.3171,-0.3235,-0.3213,-0.3215,-0.3236,-0.3234,-0.3223,-0.3219,-0.3201,-0.3215,-0.3214,-0.3246,-0.3185,-0.3253,-0.3257,-0.326,-0.333,-0.334,-0.3349,0,0,0,0,0,-0.309,-0.3111,-0.3121,-0.3133,-0.3188,-0.3237,-0.3243,-0.325,-0.3238,-0.3253,-0.3247,-0.3219,-0.3238,-0.3216,-0.3215,-0.3247,-0.3251,-0.3255,-0.326,-0.3326,-0.3338,-0.3349,0,0,0,0,0,0,-0.3057,-0.3114,-0.3124,-0.3161,-0.3201,-0.3235,-0.3249,-0.3259,-0.3268,-0.3261,-0.3241,-0.3238,-0.3266,-0.325,-0.3226,-0.3282,-0.3242,-0.3246,-0.3293,-0.3304,-0.3313,-0.3298,-0.3185,0,0,0,0,0,-0.306,-0.3091,-0.3144,-0.3172,-0.3194,-0.3224,-0.3243,-0.3257,-0.3274,-0.3277,-0.3273,-0.3272,-0.3287,-0.3287,-0.3295,-0.3321,-0.3284,-0.3344,-0.3354,-0.3361,-0.3351,-0.3338,-0.3345,-0.3277,-0.3277,-0.3277,0,0,-0.3054,-0.309,-0.3106,-0.3168,-0.3194,-0.3239,-0.3231,-0.3271,-0.3304,-0.3272,-0.3303,-0.3305,-0.3303,-0.3336,-0.3347,-0.3324,-0.3362,-0.3367,-0.3374,-0.3358,-0.3344,-0.335,-0.3355,-0.328,-0.3279,-0.3279,0,0,-0.306,-0.3093,-0.3122,-0.3163,-0.3219,-0.3249,-0.3264,-0.3311,-0.3326,-0.3367,-0.3356,-0.3375,-0.3393,-0.34,-0.3405,-0.3471,-0.3416,-0.3481,-0.351,-0.35,-0.3505,-0.3508,-0.3466,-0.3465,-0.3482,-0.3482,-0.3482,0,-0.3048,-0.3095,-0.3136,-0.3179,-0.3212,-0.3256,-0.3296,-0.3333,-0.3377,-0.339,-0.3383,-0.3422,-0.3423,-0.346,-0.3487,-0.3491,-0.3461,-0.3466,-0.351,-0.3513,-0.3515,-0.3471,-0.3469,-0.3486,-0.3485,-0.3485,-0.3485,0,-0.3078,-0.312,-0.3142,-0.3212,-0.3256,-0.3299,-0.3362,-0.3402,-0.3426,-0.3453,-0.3494,-0.3503,-0.3516,-0.3538,-0.3533,-0.3565,-0.3529,-0.3525,-0.3475,-0.3526,-0.3476,-0.3473,-0.3492,-0.349,-0.3489,-0.3488,0,0,-0.3026,-0.314,-0.3143,-0.3181,-0.3276,-0.331,-0.3384,-0.3449,-0.3482,-0.3526,-0.3553,-0.36,-0.3593,-0.3599,-0.3601,-0.3601,-0.3602,-0.3572,-0.357,-0.3518,-0.3551,-0.3444,-0.3429,-0.3603,-0.3603,-0.3603,-0.3507,0,-0.3029,-0.3106,-0.3166,-0.3236,-0.328,-0.3353,-0.3413,-0.348,-0.3528,-0.3569,-0.3592,-0.3619,-0.3622,-0.3627,-0.3633,-0.3614,-0.3597,-0.3626,-0.3519,-0.3515,-0.3404,-0.3424,-0.3192,-0.3081,-0.3504,-0.3503,-0.3503,0,-0.3025,-0.308,-0.3147,-0.3249,-0.3272,-0.3322,-0.3411,-0.3474,-0.3555,-0.3585,-0.3621,-0.3639,-0.3661,-0.3649,-0.3624,-0.364,-0.3596,-0.3573,-0.3569,-0.3435,-0.3402,-0.31,-0.3058,-0.3496,-0.3497,-0.3497,-0.3497,0,-0.2949,-0.3059,-0.3107,-0.3144,-0.3269,-0.3305,-0.3368,-0.3464,-0.3512,-0.3585,-0.3611,-0.3644,-0.3645,-0.3623,-0.3591,-0.3604,-0.3538,-0.3546,-0.34,-0.3391,-0.3153,-0.3122,-0.3504,-0.3504,-0.3504,-0.3504,-0.3505,0,-0.2918,-0.2951,-0.3074,-0.3097,-0.3148,-0.3254,-0.3312,-0.3381,-0.3476,-0.3504,-0.3598,-0.361,-0.3639,-0.3619,-0.3584,-0.3471,-0.3525,-0.339,-0.336,-0.3173,-0.3147,-0.3478,-0.3476,-0.3501,-0.3502,-0.3502,-0.3503,0,-0.2817,-0.2905,-0.296,-0.308,-0.3112,-0.3143,-0.3266,-0.3295,-0.3414,-0.3452,-0.347,-0.357,-0.3537,-0.3541,-0.349,-0.3434,-0.3357,-0.3298,-0.3064,-0.3008,-0.3216,-0.322,-0.3121,-0.3117,-0.3113,-0.3109,-0.3107,0,-0.2774,-0.2794,-0.2908,-0.2919,-0.2966,-0.3039,-0.3069,-0.3223,-0.3254,-0.3403,-0.3386,-0.3428,-0.3394,-0.3307,-0.3217,-0.3107,-0.3225,-0.2836,-0.2825,-0.3196,-0.3177,-0.3187,-0.3196,-0.2534,-0.2527,-0.2521,-0.2516,0,-0.2659,-0.2701,-0.273,-0.2779,-0.2809,-0.2865,-0.2928,-0.2961,-0.3113,-0.316,-0.3199,-0.3204,-0.3143,-0.2943,-0.2836,-0.275,-0.2845,-0.2712,-0.3142,-0.2681,-0.2638,-0.2622,-0.265,-0.2464,-0.2469,-0.2473,-0.2476,-0.2478,-0.2536,-0.2533,-0.2574,-0.2598,-0.2635,-0.2661,-0.2639,-0.2718,-0.276,-0.2782,-0.2908,-0.2828,-0.2819,-0.2536,-0.2397,-0.2297,-0.2493,-0.2392,-0.2411,-0.2437,-0.24,-0.2355,-0.2118,-0.2121,-0.2123,-0.2126,-0.2128,0,-0.2372,-0.2381,-0.239,-0.2414,-0.2376,-0.2474,-0.2498,-0.2443,-0.2404,-0.2467,-0.2458,-0.2228,-0.2104,-0.2103,-0.1864,-0.1815,-0.1808,-0.1742,-0.1743,-0.1796,-0.1842,-0.1778,-0.1329,-0.1326,-0.1324,-0.1322,0,0,-0.2279,-0.2224,-0.2241,-0.2138,-0.2148,-0.205,-0.2022,-0.1964,-0.1965,-0.1885,-0.1846,-0.2,-0.2058,-0.1705,-0.1615,-0.1436,-0.1602,-0.1361,-0.2004,-0.2059,-0.2103,-0.2218,-0.2177,0,0,0,0,0]},{"header":{"parameterUnit":"m.s-1","parameterCategory":2,"la1":30.2991,"la2":30.254,"lo1":-89.0895,"lo2":-89.0444,"dy":0.0017,"dx":0.0017,"nx":28,"ny":28,"refTime":"2024-05-10T03:00:00:Z","depth":"2","parameterNumber":3,"parameterNumberName":"V-component_of_CURRENTS"},"data":[0,0,0,0,0,0,0,0,0,0,0,0,0,0,0,0,0,0,0,0,0,0,0,0,0,0,0,0,0,0,0,0,0,0,0,0,0,0,0,0,0,0,0,0,0,0,0,0,0,0,0,0,0,0,0,0,0,0,-0.0313,-0.0312,0,-0.0195,-0.0193,-0.0192,-0.0111,-0.011,-0.011,-0.011,0.0048,0.0052,0.0056,0,0,0,0,0,0,0,0,0,0,0,0,0,-0.0391,-0.0391,-0.0313,-0.0311,-0.031,-0.0195,-0.0193,-0.0191,-0.0111,-0.011,-0.011,-0.0109,0.0047,0.0051,0.0056,0,0,0,0,0,0,0,0,0,0,0,0,0,-0.0322,-0.0391,-0.0313,-0.0258,-0.0251,-0.0195,-0.0193,-0.0191,-0.0111,-0.011,-0.011,-0.0109,0.0046,0.0051,0.0057,0.0079,0,0,0.0074,0.0077,0,0,0,0,0,0,0,0,-0.0326,-0.0319,-0.0267,-0.0261,-0.0254,-0.0168,-0.0163,-0.0099,-0.0111,-0.0162,-0.011,-0.0109,-0.0022,-0.0011,0.0012,0.0087,0.0093,0.0075,0.0078,0.0081,0.0082,0,0,0,0,0,0,0,-0.0331,-0.0323,-0.0264,-0.0266,-0.0258,-0.0212,-0.0202,-0.015,-0.0095,-0.0158,-0.0152,-0.0142,-0.0018,0.0006,0.0016,0.0096,0.0074,0.008,0.0083,0.0085,0.021,0.021,0,0,0,0,0,0,-0.0354,-0.0329,-0.0268,-0.0261,-0.0292,-0.0212,-0.02,-0.0195,-0.0096,-0.0081,-0.0143,-0.0139,-0.0004,0.001,0.0022,0.0057,0.0081,0.0086,0.0089,0.021,0.021,0.021,0,0,0,0,0,0,-0.0357,-0.035,-0.0273,-0.0293,-0.028,-0.0212,-0.0206,-0.0193,-0.0169,-0.0086,-0.007,-0.0133,-0.0003,0.0014,0.0069,0.0063,0.0088,0.0094,0.021,0.021,0.021,0.0124,0,0,0,0,0,0,-0.0359,-0.0352,-0.036,-0.0295,-0.028,-0.0252,-0.0206,-0.0191,-0.0165,-0.0159,-0.0072,-0.0056,-0.0001,0.006,0.0074,0.0072,0.0098,0.021,0.021,0.021,0.0127,0.0121,0.0116,0,0,0,0,0,-0.0363,-0.0381,-0.0361,-0.0354,-0.0292,-0.0253,-0.0241,-0.0188,-0.0166,-0.0163,-0.0098,-0.0059,0.0069,0.0064,0.0081,0.008,0.0211,0.021,0.021,0.013,0.0122,0.0116,0,0,0,0,0,0,-0.0419,-0.0373,-0.035,-0.0353,-0.0311,-0.024,-0.0236,-0.0197,-0.0144,-0.0138,-0.0056,-0.0036,0.0006,0.0055,0.0048,0.0116,0.0144,0.0147,0.0077,0.0071,0.0066,0.0047,0.0103,0,0,0,0,0,-0.0438,-0.044,-0.0382,-0.0385,-0.037,-0.0304,-0.0283,-0.0246,-0.0189,-0.0165,-0.0104,-0.0038,0.0018,0.0053,0.0105,0.0146,0.0202,0.0156,0.015,0.0145,0.0141,0.0226,0.0228,0.0209,0.0209,0.0209,0,0,-0.0461,-0.0436,-0.0437,-0.0398,-0.0362,-0.0348,-0.029,-0.0266,-0.0248,-0.0157,-0.012,-0.0059,0.0023,0.0066,0.009,0.0109,0.0178,0.0144,0.0139,0.0139,0.0226,0.0228,0.023,0.0209,0.0209,0.0209,0,0,-0.0511,-0.0487,-0.0505,-0.048,-0.0437,-0.039,-0.0388,-0.0322,-0.0287,-0.0243,-0.0174,-0.0113,-0.0033,0.0032,0.0074,0.0071,0.0139,0.008,0.0046,0.0128,0.013,0.0133,0.0196,0.0205,0.0085,0.0084,0.0084,0,-0.0543,-0.0553,-0.0504,-0.0513,-0.0501,-0.0416,-0.0427,-0.0376,-0.0299,-0.027,-0.0246,-0.0112,-0.0046,0.0027,0.0025,0.0058,0.0108,0.0063,0.012,0.0124,0.0129,0.0193,0.0204,0.008,0.0081,0.0081,0.0081,0,-0.0601,-0.0609,-0.0619,-0.0599,-0.0579,-0.0575,-0.0504,-0.0469,-0.0415,-0.0355,-0.0282,-0.0183,-0.0101,-0.0072,-0.0022,0.0039,0.0064,0.0096,0.0134,0.0125,0.0193,0.0206,0.0074,0.0076,0.0077,0.0078,0,0,-0.067,-0.0664,-0.0667,-0.0677,-0.0627,-0.0616,-0.0584,-0.0524,-0.0497,-0.0409,-0.0364,-0.0257,-0.0195,-0.0143,-0.0066,0.0009,0.008,0.0056,0.0062,0.0111,0.0248,0.0291,0.031,0.0122,0.0124,0.0125,0.0279,0,-0.0729,-0.0778,-0.0748,-0.0778,-0.0792,-0.0716,-0.0698,-0.0632,-0.0551,-0.0482,-0.0358,-0.029,-0.0223,-0.0183,-0.0097,0.0038,0.0112,0.0034,0.0256,0.0262,0.0296,0.0326,0.0283,0.0419,0.0292,0.0294,0.0296,0,-0.0793,-0.0816,-0.087,-0.0872,-0.0872,-0.087,-0.0816,-0.0782,-0.0657,-0.0598,-0.0489,-0.0388,-0.0257,-0.0205,0.0023,-0.0031,0.0093,0.0198,0.0208,0.0288,0.033,0.0411,0.0448,0.0319,0.0317,0.0315,0.0314,0,-0.087,-0.0897,-0.0946,-0.0949,-0.0934,-0.0937,-0.0911,-0.0819,-0.0788,-0.0655,-0.0611,-0.0444,-0.0352,-0.0174,0.0049,0.0037,0.03,0.0317,0.0473,0.0477,0.0506,0.0509,0.0472,0.0471,0.0471,0.0471,0.047,0,-0.0943,-0.0978,-0.0987,-0.1016,-0.1068,-0.102,-0.103,-0.0974,-0.0884,-0.0848,-0.0676,-0.0597,-0.034,-0.0152,0.0036,0.0303,0.0299,0.0476,0.0529,0.0473,0.0472,0.0437,0.0431,0.0476,0.0475,0.0474,0.0473,0,-0.1017,-0.1023,-0.1082,-0.1098,-0.1109,-0.1141,-0.1126,-0.1116,-0.102,-0.0959,-0.0923,-0.0697,-0.0445,-0.018,0.0127,0.0289,0.0534,0.0625,0.0534,0.0574,0.0654,0.0641,0.0812,0.0815,0.0817,0.0819,0.0821,0,-0.1059,-0.1098,-0.1161,-0.1202,-0.1213,-0.1245,-0.1265,-0.1197,-0.1172,-0.1015,-0.0987,-0.0735,-0.0532,-0.0057,0.0273,0.0623,0.0616,0.0768,0.0746,0.066,0.0693,0.0677,0.0661,0.0746,0.0747,0.0748,0.0748,0,-0.1132,-0.1154,-0.1202,-0.1302,-0.1346,-0.1391,-0.1399,-0.1403,-0.1305,-0.1224,-0.1055,-0.0877,-0.0413,-0.0009,0.0439,0.0628,0.0709,0.0797,0.076,0.066,0.0609,0.0638,0.0623,0.0756,0.0755,0.0754,0.0754,0.0754,-0.1174,-0.1233,-0.1303,-0.1389,-0.1452,-0.1506,-0.1528,-0.1498,-0.1452,-0.1295,-0.1116,-0.0809,-0.0415,0.0238,0.0559,0.0838,0.0827,0.0892,0.0885,0.0878,0.0836,0.0792,0.0965,0.0965,0.0966,0.0966,0.0966,0,-0.1224,-0.1289,-0.1381,-0.148,-0.1559,-0.1572,-0.1595,-0.1563,-0.1498,-0.1305,-0.1095,-0.0646,-0.0176,0.0221,0.0685,0.0964,0.0926,0.0988,0.0891,0.0882,0.0875,0.0829,0.0958,0.0959,0.096,0.0961,0,0,-0.1247,-0.1346,-0.1399,-0.1542,-0.161,-0.1668,-0.1673,-0.1597,-0.145,-0.1242,-0.1008,-0.0659,-0.0162,0.0169,0.0523,0.076,0.0739,0.0766,0.0742,0.0578,0.0567,0.0791,0.0708,0,0,0,0,0]}],[{"header":{"parameterUnit":"m.s-1","parameterCategory":2,"la1":30.2991,"la2":30.254,"lo1":-89.0895,"lo2":-89.0444,"dy":0.0017,"dx":0.0017,"nx":28,"ny":28,"refTime":"2024-05-10T03:00:00:Z","depth":"4","parameterNumber":2,"parameterNumberName":"U-component_of_CURRENTS"},"data":[0,0,0,0,0,0,0,0,0,0,0,0,0,0,0,0,0,0,0,0,0,0,0,0,0,0,0,0,0,0,0,0,0,0,0,0,0,0,0,0,0,0,0,0,0,0,0,0,0,0,0,0,0,0,0,0,0,0,-0.2106,-0.2107,0,-0.2214,-0.2215,-0.2216,-0.2281,-0.2281,-0.2282,-0.2282,-0.2378,-0.238,-0.2382,0,0,0,0,0,0,0,0,0,0,0,0,0,-0.1966,-0.1968,-0.2105,-0.2107,-0.2109,-0.2214,-0.2215,-0.2217,-0.2281,-0.2281,-0.2282,-0.2283,-0.2377,-0.238,-0.2382,0,0,0,0,0,0,0,0,0,0,0,0,0,-0.2043,-0.1968,-0.2105,-0.2155,-0.2161,-0.2214,-0.2216,-0.2217,-0.2281,-0.2281,-0.2282,-0.2283,-0.2376,-0.2379,-0.2382,-0.2387,0,0,-0.2392,-0.2393,0,0,0,0,0,0,0,0,-0.2039,-0.2048,-0.2146,-0.2152,-0.2158,-0.2237,-0.2202,-0.2274,-0.228,-0.2233,-0.2282,-0.2283,-0.233,-0.2337,-0.2353,-0.2391,-0.2395,-0.2392,-0.2394,-0.2395,-0.2396,0,0,0,0,0,0,0,-0.2033,-0.2044,-0.2146,-0.2148,-0.2155,-0.2177,-0.2188,-0.2215,-0.2274,-0.2237,-0.2242,-0.2258,-0.2333,-0.235,-0.2356,-0.2397,-0.2392,-0.2395,-0.2397,-0.2398,-0.2549,-0.2551,0,0,0,0,0,0,-0.2024,-0.2039,-0.2143,-0.215,-0.2102,-0.2178,-0.2191,-0.2209,-0.2274,-0.2286,-0.2257,-0.2261,-0.2344,-0.2352,-0.2359,-0.2468,-0.2395,-0.2398,-0.24,-0.2547,-0.2549,-0.2552,0,0,0,0,0,0,-0.202,-0.2032,-0.2138,-0.2098,-0.2114,-0.218,-0.22,-0.2211,-0.2268,-0.229,-0.2301,-0.2307,-0.2345,-0.2355,-0.2422,-0.2469,-0.24,-0.2403,-0.2544,-0.2548,-0.255,-0.2622,0,0,0,0,0,0,-0.2016,-0.203,-0.2057,-0.2098,-0.2116,-0.2197,-0.2199,-0.2212,-0.2275,-0.2281,-0.2336,-0.2343,-0.2346,-0.2418,-0.2426,-0.2472,-0.2405,-0.2542,-0.2546,-0.2549,-0.2617,-0.2627,-0.2636,0,0,0,0,0,-0.201,-0.2038,-0.2058,-0.2072,-0.2145,-0.2199,-0.2211,-0.2258,-0.2277,-0.231,-0.235,-0.2344,-0.2449,-0.2422,-0.2431,-0.2479,-0.254,-0.2545,-0.2549,-0.2613,-0.2625,-0.2636,0,0,0,0,0,0,-0.1994,-0.2049,-0.2071,-0.2116,-0.2168,-0.2211,-0.2251,-0.2281,-0.2339,-0.2357,-0.2372,-0.2383,-0.2459,-0.246,-0.2431,-0.2534,-0.2493,-0.25,-0.2538,-0.255,-0.256,-0.2547,-0.2408,0,0,0,0,0,-0.2001,-0.204,-0.2092,-0.2133,-0.2161,-0.2214,-0.2249,-0.2285,-0.2332,-0.2361,-0.24,-0.244,-0.2478,-0.2508,-0.254,-0.2598,-0.2571,-0.2634,-0.2644,-0.2652,-0.2649,-0.2651,-0.266,-0.2567,-0.2567,-0.2567,0,0,-0.2007,-0.2043,-0.2067,-0.2134,-0.2177,-0.223,-0.2238,-0.2306,-0.2359,-0.236,-0.2453,-0.2479,-0.2502,-0.2568,-0.2602,-0.2581,-0.2665,-0.2658,-0.2665,-0.2657,-0.2657,-0.2665,-0.2673,-0.2571,-0.257,-0.257,0,0,-0.2027,-0.2072,-0.211,-0.2157,-0.2233,-0.2267,-0.2296,-0.2367,-0.2412,-0.2493,-0.2507,-0.2561,-0.263,-0.265,-0.2667,-0.2748,-0.2715,-0.277,-0.2811,-0.2815,-0.2821,-0.2827,-0.28,-0.2803,-0.2775,-0.2775,-0.2775,0,-0.2035,-0.2086,-0.2131,-0.2181,-0.2227,-0.2288,-0.2342,-0.2397,-0.2486,-0.2521,-0.2536,-0.2638,-0.2663,-0.2725,-0.2759,-0.277,-0.2755,-0.2765,-0.2825,-0.283,-0.2834,-0.2805,-0.2807,-0.2779,-0.2779,-0.2778,-0.2778,0,-0.2072,-0.2132,-0.2161,-0.2243,-0.2299,-0.2358,-0.2433,-0.2503,-0.2563,-0.2607,-0.2697,-0.2732,-0.2784,-0.2811,-0.2814,-0.287,-0.2843,-0.2834,-0.2789,-0.2848,-0.2814,-0.2814,-0.2785,-0.2783,-0.2782,-0.2781,0,0,-0.2032,-0.2162,-0.2175,-0.2226,-0.2338,-0.2381,-0.2481,-0.2569,-0.2629,-0.2714,-0.2777,-0.2856,-0.2871,-0.2891,-0.2905,-0.2918,-0.2944,-0.29,-0.2898,-0.2861,-0.2933,-0.2738,-0.2719,-0.2948,-0.2949,-0.295,-0.2893,0,-0.2049,-0.2145,-0.221,-0.2309,-0.2364,-0.2454,-0.2534,-0.2626,-0.2703,-0.2781,-0.2829,-0.2894,-0.2903,-0.2934,-0.2953,-0.2951,-0.2951,-0.2958,-0.2891,-0.2889,-0.2699,-0.2715,-0.2952,-0.2894,-0.2894,-0.2894,-0.2894,0,-0.2052,-0.2119,-0.2218,-0.2342,-0.2374,-0.2448,-0.2574,-0.2655,-0.2771,-0.2826,-0.2898,-0.2936,-0.299,-0.2979,-0.2993,-0.3001,-0.2973,-0.2958,-0.2955,-0.2744,-0.2694,-0.2826,-0.2894,-0.2894,-0.2894,-0.2894,-0.2894,0,-0.198,-0.2117,-0.2196,-0.2242,-0.2394,-0.246,-0.2543,-0.2671,-0.2734,-0.2853,-0.2899,-0.2969,-0.3001,-0.3,-0.2987,-0.2997,-0.2969,-0.2972,-0.2762,-0.2747,-0.2909,-0.2904,-0.2957,-0.2957,-0.2957,-0.2958,-0.2958,0,-0.1946,-0.2011,-0.2177,-0.2218,-0.2307,-0.243,-0.253,-0.262,-0.2743,-0.2787,-0.2911,-0.2933,-0.301,-0.3011,-0.2989,-0.2861,-0.2966,-0.2753,-0.2716,-0.2941,-0.294,-0.2909,-0.2904,-0.2955,-0.2956,-0.2956,-0.2957,0,-0.1848,-0.1964,-0.2057,-0.2224,-0.2278,-0.2341,-0.2505,-0.2553,-0.2699,-0.2758,-0.2793,-0.2913,-0.2899,-0.2934,-0.2917,-0.2828,-0.275,-0.2677,-0.2897,-0.2877,-0.2527,-0.2527,-0.2429,-0.2421,-0.2415,-0.241,-0.2405,0,-0.1803,-0.1848,-0.2028,-0.2071,-0.2152,-0.2269,-0.2327,-0.2501,-0.2538,-0.2704,-0.2689,-0.276,-0.2803,-0.262,-0.2687,-0.2605,-0.2578,-0.252,-0.2537,-0.2496,-0.2472,-0.2482,-0.249,-0.2395,-0.2394,-0.2392,-0.239,0,-0.1697,-0.1782,-0.1847,-0.1946,-0.2024,-0.2102,-0.22,-0.2218,-0.2383,-0.2532,-0.2507,-0.2505,-0.2482,-0.2469,-0.2419,-0.237,-0.2554,-0.2454,-0.2467,-0.2483,-0.2454,-0.2439,-0.2454,-0.2368,-0.2372,-0.2374,-0.2375,0,-0.1602,-0.1623,-0.172,-0.1784,-0.1873,-0.19,-0.1989,-0.2022,-0.2093,-0.2273,-0.2247,-0.2332,-0.2436,-0.2343,-0.23,-0.2233,-0.2203,-0.2133,-0.2163,-0.2188,-0.2137,-0.2067,-0.1812,0,0,0,0,0,-0.1494,-0.1499,-0.1544,-0.1609,-0.1686,-0.1742,-0.1873,-0.1964,-0.2123,-0.2028,-0.2138,-0.2103,-0.2063,-0.2118,-0.1995,-0.2191,-0.2215,-0.204,-0.2152,-0.2247,-0.2273,-0.2236,0,0,0,0,0,0,-0.1421,-0.1459,-0.1484,-0.144,-0.1444,-0.1515,-0.1594,-0.171,-0.168,-0.1846,-0.183,-0.1949,-0.1939,-0.2078,-0.1939,-0.195,-0.1972,-0.2097,-0.2091,-0.2233,-0.2256,-0.2276,-0.2247,0,0,0,0,0]},{"header":{"parameterUnit":"m.s-1","parameterCategory":2,"la1":30.2991,"la2":30.254,"lo1":-89.0895,"lo2":-89.0444,"dy":0.0017,"dx":0.0017,"nx":28,"ny":28,"refTime":"2024-05-10T03:00:00:Z","depth":"4","parameterNumber":3,"parameterNumberName":"V-component_of_CURRENTS"},"data":[0,0,0,0,0,0,0,0,0,0,0,0,0,0,0,0,0,0,0,0,0,0,0,0,0,0,0,0,0,0,0,0,0,0,0,0,0,0,0,0,0,0,0,0,0,0,0,0,0,0,0,0,0,0,0,0,0,0,-0.0188,-0.0187,0,-0.0112,-0.0111,-0.011,-0.0054,-0.0054,-0.0053,-0.0053,0.0066,0.0068,0.0071,0,0,0,0,0,0,0,0,0,0,0,0,0,-0.0224,-0.0224,-0.0188,-0.0187,-0.0186,-0.0112,-0.0111,-0.0109,-0.0054,-0.0054,-0.0053,-0.0053,0.0065,0.0068,0.0072,0,0,0,0,0,0,0,0,0,0,0,0,0,-0.0183,-0.0224,-0.0188,-0.0151,-0.0147,-0.0112,-0.0111,-0.0109,-0.0054,-0.0054,-0.0053,-0.0053,0.0064,0.0068,0.0072,0.009,0,0,0.0085,0.0087,0,0,0,0,0,0,0,0,-0.0185,-0.0181,-0.0157,-0.0154,-0.0149,-0.0094,-0.008,-0.0041,-0.0054,-0.0087,-0.0053,-0.0053,0.0015,0.0023,0.0039,0.0096,0.0101,0.0086,0.0088,0.009,0.0091,0,0,0,0,0,0,0,-0.0188,-0.0184,-0.0156,-0.0157,-0.0152,-0.0118,-0.0112,-0.0072,-0.0037,-0.0084,-0.0081,-0.0076,0.0018,0.0034,0.0042,0.0102,0.0086,0.0089,0.0092,0.0094,0.0194,0.0195,0,0,0,0,0,0,-0.0205,-0.0187,-0.0158,-0.0153,-0.0169,-0.0118,-0.0111,-0.011,-0.0039,-0.0028,-0.0076,-0.0073,0.0027,0.0037,0.0046,0.0075,0.009,0.0094,0.0097,0.0194,0.0194,0.0195,0,0,0,0,0,0,-0.0206,-0.0204,-0.0161,-0.017,-0.0162,-0.0118,-0.0118,-0.0109,-0.0093,-0.0033,-0.0021,-0.007,0.0027,0.004,0.0083,0.008,0.0096,0.01,0.0194,0.0194,0.0195,0.0131,0,0,0,0,0,0,-0.0208,-0.0205,-0.0214,-0.0171,-0.0162,-0.0149,-0.0118,-0.0108,-0.0092,-0.0087,-0.0024,-0.0012,0.0029,0.0076,0.0087,0.0086,0.0103,0.0194,0.0194,0.0194,0.0133,0.0129,0.0125,0,0,0,0,0,-0.021,-0.0227,-0.0215,-0.0211,-0.0175,-0.015,-0.0142,-0.0108,-0.0092,-0.0091,-0.0042,-0.0014,0.0084,0.0079,0.0092,0.0093,0.0194,0.0194,0.0194,0.0135,0.013,0.0125,0,0,0,0,0,0,-0.0246,-0.0221,-0.0208,-0.0216,-0.0189,-0.0142,-0.0142,-0.0114,-0.0075,-0.0071,-0.0011,0.0004,0.0037,0.0075,0.0068,0.0123,0.0143,0.0146,0.0093,0.0089,0.0085,0.0066,0.0107,0,0,0,0,0,-0.026,-0.0267,-0.0231,-0.0239,-0.023,-0.0187,-0.0173,-0.0148,-0.0108,-0.0091,-0.0046,0.0004,0.0048,0.0075,0.0115,0.0148,0.0191,0.0157,0.0153,0.015,0.0144,0.0214,0.0216,0.0195,0.0195,0.0195,0,0,-0.0277,-0.0265,-0.0269,-0.0247,-0.0225,-0.0219,-0.0177,-0.0164,-0.0153,-0.0084,-0.0059,-0.0011,0.0053,0.0087,0.0106,0.012,0.0177,0.015,0.0146,0.0142,0.0214,0.0216,0.0218,0.0195,0.0195,0.0195,0,0,-0.0314,-0.0304,-0.0321,-0.0306,-0.0281,-0.025,-0.025,-0.0206,-0.0182,-0.0149,-0.0097,-0.0048,0.0012,0.0064,0.0097,0.0098,0.0149,0.0106,0.0079,0.0148,0.015,0.0152,0.02,0.0207,0.0111,0.011,0.011,0,-0.0336,-0.0351,-0.0321,-0.0332,-0.0329,-0.0269,-0.0283,-0.0246,-0.0192,-0.0173,-0.0153,-0.005,0.0004,0.0061,0.0062,0.009,0.0128,0.009,0.0142,0.0146,0.0149,0.0198,0.0207,0.0107,0.0108,0.0108,0.0108,0,-0.0382,-0.0395,-0.0404,-0.0399,-0.0389,-0.0391,-0.0343,-0.032,-0.0282,-0.024,-0.0184,-0.0103,-0.0041,-0.0014,0.0026,0.0078,0.0095,0.0123,0.015,0.0147,0.0199,0.0209,0.0103,0.0104,0.0105,0.0106,0,0,-0.0426,-0.0436,-0.0441,-0.0456,-0.0428,-0.0425,-0.0406,-0.0369,-0.0355,-0.0286,-0.0258,-0.0166,-0.0118,-0.0077,-0.0012,0.0053,0.0114,0.0091,0.0097,0.0131,0.0249,0.0229,0.0239,0.0151,0.0152,0.0154,0.0271,0,-0.0471,-0.0518,-0.0504,-0.0537,-0.0555,-0.0507,-0.0501,-0.0458,-0.0401,-0.0356,-0.0253,-0.0204,-0.0141,-0.0111,-0.0036,0.0076,0.0139,0.0078,0.0253,0.0258,0.0235,0.025,0.0159,0.0279,0.0282,0.0284,0.0285,0,-0.0517,-0.0544,-0.0597,-0.0616,-0.0621,-0.0629,-0.0607,-0.0587,-0.0501,-0.0459,-0.0375,-0.0294,-0.0185,-0.0136,0.0056,0.0012,0.0118,0.0208,0.0215,0.0225,0.0257,0.0288,0.0304,0.0303,0.0301,0.03,0.0299,0,-0.0568,-0.0606,-0.0655,-0.0664,-0.0672,-0.0687,-0.068,-0.0622,-0.0607,-0.0515,-0.0486,-0.0349,-0.0274,-0.0122,0.0066,0.0062,0.0276,0.0298,0.038,0.038,0.039,0.0386,0.0428,0.0428,0.0427,0.0427,0.0427,0,-0.0614,-0.0654,-0.0689,-0.0717,-0.0777,-0.0754,-0.0783,-0.075,-0.0696,-0.0677,-0.0544,-0.0486,-0.0266,-0.0113,0.0049,0.0244,0.0269,0.0374,0.0412,0.0359,0.0351,0.0397,0.0392,0.0431,0.043,0.043,0.0429,0,-0.0653,-0.0677,-0.0741,-0.0783,-0.0806,-0.0844,-0.0866,-0.0868,-0.0811,-0.0776,-0.0751,-0.0577,-0.0377,-0.0157,0.0102,0.0216,0.0407,0.047,0.0385,0.0417,0.0466,0.0457,0.0564,0.0564,0.0564,0.0565,0.0565,0,-0.0674,-0.0712,-0.0803,-0.085,-0.0875,-0.0927,-0.096,-0.0934,-0.0923,-0.0826,-0.0804,-0.0617,-0.0481,-0.0121,0.0097,0.0396,0.0438,0.0519,0.0502,0.0456,0.0482,0.0472,0.0462,0.0565,0.0565,0.0566,0.0566,0,-0.0708,-0.0748,-0.08,-0.091,-0.0971,-0.1028,-0.1063,-0.1066,-0.1014,-0.0976,-0.0824,-0.0629,-0.0404,-0.0124,0.0109,0.0322,0.0456,0.0523,0.0524,0.0508,0.0459,0.0483,0.0473,0.0567,0.0566,0.0566,0.0566,0,-0.0728,-0.0779,-0.086,-0.0948,-0.1036,-0.1089,-0.1107,-0.1074,-0.1055,-0.0937,-0.0891,-0.0632,-0.0481,-0.0162,0.0053,0.0259,0.0306,0.0355,0.0366,0.0367,0.0272,0.0179,0.0233,0,0,0,0,0,-0.0737,-0.0797,-0.0888,-0.0984,-0.1072,-0.1118,-0.1155,-0.1148,-0.111,-0.101,-0.0943,-0.0725,-0.0382,-0.0223,-0.0018,0.0039,0.0321,0.028,0.0378,0.0572,0.0571,0.0491,0,0,0,0,0,0,-0.0742,-0.0832,-0.0885,-0.0993,-0.1058,-0.1143,-0.1164,-0.114,-0.1064,-0.0997,-0.08,-0.0701,-0.0355,-0.0494,-0.0019,0.0042,0.0124,0.0446,0.0449,0.0573,0.0572,0.0571,0.0488,0,0,0,0,0]}]]